This is the latest recevied weather packets stored in our database for station/object BARLOW-WX. If no packets are shown the sender has not sent any weather packets the latest 10 day(s).
| Time | Temp. | Humidity | Pressure | Rain* | Wind** | Luminosity | Snow |
|---|---|---|---|---|---|---|---|
| 1787621480 | 16.67° C | 78% | 990.1 hPa | 0 mm | - | - | - |
| 1787620578 | 16.67° C | 78% | 990.1 hPa | 0 mm | - | - | - |
| 1787619680 | 16.67° C | 78% | 990.1 hPa | 0 mm | - | - | - |
| 1787618778 | 17.22° C | 75% | 989.1 hPa | 0 mm | - | - | - |
| 1787617877 | 17.22° C | 73% | 989.8 hPa | 0 mm | - | - | - |
| 1787616978 | 18.33° C | 73% | 989.8 hPa | 0 mm | - | - | - |
| 1787616083 | 18.89° C | 73% | 989.8 hPa | 0 mm | - | - | - |
| 1787615181 | 18.89° C | 65% | 988.5 hPa | 0 mm | - | - | - |
| 1787614278 | 19.44° C | 61% | 989.9 hPa | 0 mm | - | - | - |
| 1787613381 | 19.44° C | 61% | 989.8 hPa | 0 mm | - | - | - |
| 1787612481 | 20° C | 61% | 989.8 hPa | 0 mm | - | - | - |
| 1787611581 | 20° C | 65% | 989 hPa | 0 mm | - | - | - |
| 1787610682 | 20.56° C | 63% | 989.8 hPa | 0 mm | - | - | - |
| 1787609781 | 20.56° C | 63% | 989.8 hPa | 0 mm | - | - | - |
| 1787608881 | 21.11° C | 63% | 989.8 hPa | 0 mm | - | - | - |
| 1787607981 | 21.11° C | 63% | 988.5 hPa | 0 mm | - | - | - |
| 1787607081 | 21.11° C | 58% | 989.1 hPa | 0 mm | - | - | - |
| 1787606181 | 21.11° C | 58% | 989.1 hPa | 0 mm | - | - | - |
| 1787605281 | 21.67° C | 58% | 989.1 hPa | 0 mm | - | - | - |
| 1787604381 | 21.67° C | 61% | 989.1 hPa | 0 mm | - | - | - |
| 1787603481 | 21.67° C | 58% | 988.7 hPa | 0 mm | - | - | - |
| 1787602581 | 21.11° C | 58% | 988.7 hPa | 0 mm | - | - | - |
| 1787601681 | 21.11° C | 55% | 988.9 hPa | 0 mm | - | - | - |
| 1787600778 | 21.11° C | 58% | 988.6 hPa | 0 mm | - | - | - |
| 1787599881 | 21.11° C | 58% | 988.6 hPa | 0 mm | - | - | - |
* Rain latest hour (hover to see other rain measurements)
** Current wind speed in m/s (hover to see current wind gust speed)